Weather History for Lakehurst NAS, NJ

Change the Weather History Date:

Saturday, February 2, 2013

  Actual Average Record
Temperature  
Mean Temperature 22 °F -  
Max Temperature 24 °F 40 °F 57 °F (1999)
Min Temperature 15 °F 28 °F 15 °F (2013)
Degree Days  
Heating Degree Days 42    
Moisture  
Dew Point 8 °F    
Average Humidity 53    
Maximum Humidity 88    
Minimum Humidity 33    
Precipitation  
Precipitation 0.00 in - - ()
Sea Level Pressure  
Sea Level Pressure 30.20 in    
Wind  
Wind Speed 10 mph (WSW)    
Max Wind Speed 15 mph    
Max Gust Speed 22 mph    
Averages and records for this station are not official NWS values.
T = Trace of Precipitation, MM = Missing Value Source: NWS Daily Summary

Daily Weather History Graph

Daily Weather History Graph

Search for Another Location

Airport:

Trip Planner

Search our weather history database for the weather conditions in past years. The results will help you decide how hot, cold, wet, or windy it might be!

Date:

Astronomy

Feb. 02, 2013 Rise Set
Actual Time 7:04 AM EST 5:18 PM EST
Civil Twilight 6:36 AM EST 5:46 PM EST
Nautical Twilight 6:03 AM EST 6:18 PM EST
Astronomical Twilight 5:32 AM EST 6:50 PM EST
Moon No Moon Rise 10:13 AM EST (2/2)
Length of Visible Light 11h 10m
Length of Day
10h 13m
Waning Gibbous, 60% of the Moon is Illuminated
Feb 2
Waning Gibbous
Feb 3
Last Quarter
Feb 10
New
Feb 17
First Quarter
Feb 25
Full

Hourly Weather History & Observations

Time (EST) Temp. Windchill Dew Point Humidity Pressure Visibility Wind Dir Wind Speed Gust Speed Precip Events Conditions
12:00 AM 21.9 °F 10.4 °F 6.1 °F 51% 30.26 in - WNW 11.5 mph - N/A   Clear
1:00 AM 21.0 °F 8.6 °F 6.1 °F 53% 30.27 in - West 12.7 mph - N/A   Clear
2:00 AM 21.0 °F 9.9 °F 6.1 °F 53% 30.29 in - WNW 10.4 mph 19.6 mph N/A   Clear
3:00 AM 19.9 °F 7.3 °F 5.0 °F 52% 30.31 in - West 12.7 mph - N/A   Clear
4:00 AM 19.9 °F 7.9 °F 6.1 °F 55% 30.30 in - WNW 11.5 mph - N/A   Clear
5:00 AM 18.0 °F 7.7 °F 7.0 °F 62% 30.30 in - West 8.1 mph - N/A   Clear
6:22 AM - - - N/A% - - North - - N/A   Unknown
7:00 AM 15.1 °F 7.7 °F 6.1 °F 68% 30.32 in - West 4.6 mph - N/A   Clear
8:00 AM 19.0 °F 11.1 °F 6.1 °F 57% 30.32 in - West 5.8 mph - N/A   Clear
9:00 AM 21.0 °F 12.4 °F 5.0 °F 50% 30.32 in - West 6.9 mph - N/A   Clear
10:00 AM 24.1 °F 15.2 °F 3.9 °F 42% 30.30 in - WSW 8.1 mph - N/A   Clear
12:00 PM 28.0 °F 19.3 °F 3.0 °F 34% 30.23 in - SW 9.2 mph 21.9 mph N/A   Clear
1:00 PM 28.9 °F 17.7 °F 3.0 °F 33% 30.20 in - SW 15.0 mph 21.9 mph N/A   Clear
2:00 PM 30.0 °F 21.1 °F 3.9 °F 33% 30.17 in - WSW 10.4 mph - N/A   Clear
3:00 PM 30.0 °F 20.0 °F 5.0 °F 35% 30.15 in - WSW 12.7 mph 19.6 mph N/A   Clear
4:00 PM 28.9 °F 20.4 °F 6.1 °F 38% 30.14 in - WSW 9.2 mph 18.4 mph N/A   Overcast
5:00 PM 28.0 °F 19.3 °F 6.1 °F 39% 30.12 in - WSW 9.2 mph - N/A   Partly Cloudy
6:00 PM 28.0 °F 19.3 °F 7.0 °F 41% 30.11 in - SSW 9.2 mph - N/A   Mostly Cloudy
7:00 PM 28.0 °F 20.0 °F 8.1 °F 43% 30.11 in - SW 8.1 mph - N/A   Overcast
8:00 PM 27.0 °F 18.7 °F 12.0 °F 53% 30.10 in - SW 8.1 mph - N/A   Overcast
9:00 PM 26.1 °F 17.6 °F 17.1 °F 69% 30.10 in - WSW 8.1 mph - N/A Snow Light Snow
9:31 PM 24.8 °F 17.9 °F 19.4 °F 80% 30.10 in - WSW 5.8 mph - N/A Snow Light Snow
10:00 PM 24.1 °F 19.7 °F 19.9 °F 84% 30.10 in - WSW 3.5 mph - N/A Snow Snow
11:00 PM 24.1 °F 15.2 °F 21.0 °F 88% 30.08 in - East 8.1 mph - N/A Snow Snow